Time,TemperatureF,DewpointF,PressureIn,WindDirection,WindDirectionDegrees,WindSpeedMPH,WindSpeedGustMPH,Humidity,HourlyPrecipIn,Conditions,Clouds,dailyrainin,SoftwareType,DateUTC
2013-01-10 00:14:00,46.5,35.0,30.23,WSW,246,2.0,10.0,64,0.00,,,0.00,weatherlink.com 1.10,2013-01-10 05:14:00,
2013-01-10 00:59:00,46.0,34.0,30.24,West,262,4.0,10.0,63,0.00,,,0.00,weatherlink.com 1.10,2013-01-10 05:59:00,
2013-01-10 01:14:00,46.0,33.0,30.25,WNW,300,4.0,13.0,61,0.00,,,0.00,weatherlink.com 1.10,2013-01-10 06:14:00,
2013-01-10 01:29:00,45.9,33.0,30.26,WNW,287,5.0,12.0,60,0.00,,,0.00,weatherlink.com 1.10,2013-01-10 06:29:00,
2013-01-10 01:44:00,46.1,31.0,30.27,WNW,294,3.0,13.0,57,0.00,,,0.00,weatherlink.com 1.10,2013-01-10 06:44:00,
2013-01-10 01:59:00,46.0,31.0,30.27,WNW,295,4.0,11.0,57,0.00,,,0.00,weatherlink.com 1.10,2013-01-10 06:59:00,
2013-01-10 02:14:00,45.6,31.0,30.29,NW,311,4.0,11.0,58,0.00,,,0.00,weatherlink.com 1.10,2013-01-10 07:14:00,
2013-01-10 02:29:00,45.4,31.0,30.29,West,277,7.0,15.0,57,0.00,,,0.00,weatherlink.com 1.10,2013-01-10 07:29:00,
2013-01-10 02:44:00,45.4,30.0,30.29,WNW,288,3.0,15.0,55,0.00,,,0.00,weatherlink.com 1.10,2013-01-10 07:44:00,
2013-01-10 02:59:00,45.2,29.0,30.30,WSW,257,5.0,14.0,54,0.00,,,0.00,weatherlink.com 1.10,2013-01-10 07:59:00,
2013-01-10 03:14:00,45.1,29.0,30.30,WNW,298,2.0,12.0,53,0.00,,,0.00,weatherlink.com 1.10,2013-01-10 08:14:00,
2013-01-10 03:29:00,44.9,29.0,30.31,NW,310,2.0,8.0,53,0.00,,,0.00,weatherlink.com 1.10,2013-01-10 08:29:00,
2013-01-10 03:44:00,44.8,28.0,30.32,WNW,283,1.0,10.0,53,0.00,,,0.00,weatherlink.com 1.10,2013-01-10 08:44:00,
2013-01-10 04:00:00,44.6,28.0,30.32,West,274,1.0,7.0,53,0.00,,,0.00,weatherlink.com 1.10,2013-01-10 09:00:00,
2013-01-10 04:15:00,44.4,28.0,30.33,West,274,4.0,10.0,53,0.00,,,0.00,weatherlink.com 1.10,2013-01-10 09:15:00,
2013-01-10 04:30:00,44.3,28.0,30.33,WNW,289,6.0,17.0,53,0.00,,,0.00,weatherlink.com 1.10,2013-01-10 09:30:00,
2013-01-10 04:45:00,44.2,28.0,30.33,WNW,292,5.0,10.0,53,0.00,,,0.00,weatherlink.com 1.10,2013-01-10 09:45:00,
2013-01-10 05:00:00,43.9,28.0,30.34,WNW,285,5.0,10.0,53,0.00,,,0.00,weatherlink.com 1.10,2013-01-10 10:00:00,
2013-01-10 05:15:00,43.7,27.0,30.35,NW,325,7.0,9.0,53,0.00,,,0.00,weatherlink.com 1.10,2013-01-10 10:15:00,
2013-01-10 05:30:00,43.6,27.0,30.36,West,280,7.0,15.0,53,0.00,,,0.00,weatherlink.com 1.10,2013-01-10 10:30:00,
2013-01-10 05:45:00,43.3,27.0,30.37,West,281,3.0,11.0,53,0.00,,,0.00,weatherlink.com 1.10,2013-01-10 10:45:00,
2013-01-10 06:00:00,43.1,27.0,30.38,WNW,290,1.0,13.0,53,0.00,,,0.00,weatherlink.com 1.10,2013-01-10 11:00:00,
2013-01-10 06:15:00,43.0,27.0,30.38,West,262,4.0,9.0,53,0.00,,,0.00,weatherlink.com 1.10,2013-01-10 11:15:00,
2013-01-10 06:30:00,42.9,27.0,30.39,West,273,2.0,10.0,54,0.00,,,0.00,weatherlink.com 1.10,2013-01-10 11:30:00,
2013-01-10 06:45:00,42.7,27.0,30.40,SW,229,2.0,7.0,54,0.00,,,0.00,weatherlink.com 1.10,2013-01-10 11:45:00,
2013-01-10 07:00:00,42.6,27.0,30.40,WNW,290,3.0,12.0,54,0.00,,,0.00,weatherlink.com 1.10,2013-01-10 12:00:00,
2013-01-10 07:15:00,42.5,27.0,30.40,NW,311,2.0,13.0,54,0.00,,,0.00,weatherlink.com 1.10,2013-01-10 12:15:00,
2013-01-10 07:30:00,42.5,27.0,30.43,WNW,298,3.0,7.0,54,0.00,,,0.00,weatherlink.com 1.10,2013-01-10 12:30:00,
2013-01-10 07:45:00,42.5,27.0,30.43,NW,307,2.0,8.0,55,0.00,,,0.00,weatherlink.com 1.10,2013-01-10 12:45:00,
2013-01-10 08:00:00,42.8,28.0,30.44,WNW,283,5.0,8.0,56,0.00,,,0.00,weatherlink.com 1.10,2013-01-10 13:00:00,
2013-01-10 08:15:00,42.9,27.0,30.45,SW,233,1.0,11.0,53,0.00,,,0.00,weatherlink.com 1.10,2013-01-10 13:15:00,
2013-01-10 08:30:00,43.1,26.0,30.46,West,269,4.0,12.0,52,0.00,,,0.00,weatherlink.com 1.10,2013-01-10 13:30:00,
2013-01-10 08:45:00,43.3,27.0,30.45,WSW,239,4.0,12.0,52,0.00,,,0.00,weatherlink.com 1.10,2013-01-10 13:45:00,
2013-01-10 09:00:00,43.6,27.0,30.47,WSW,240,0.0,15.0,52,0.00,,,0.00,weatherlink.com 1.10,2013-01-10 14:00:00,
2013-01-10 09:15:00,43.9,27.0,30.47,NW,311,7.0,12.0,51,0.00,,,0.00,weatherlink.com 1.10,2013-01-10 14:15:00,
2013-01-10 09:30:00,44.1,26.0,30.47,West,270,4.0,11.0,50,0.00,,,0.00,weatherlink.com 1.10,2013-01-10 14:30:00,
2013-01-10 09:45:00,44.0,26.0,30.48,West,259,5.0,12.0,50,0.00,,,0.00,weatherlink.com 1.10,2013-01-10 14:45:00,
2013-01-10 10:00:00,44.3,27.0,30.48,SW,233,1.0,14.0,50,0.00,,,0.00,weatherlink.com 1.10,2013-01-10 15:00:00,
2013-01-10 10:15:00,44.1,26.0,30.49,NW,309,1.0,10.0,50,0.00,,,0.00,weatherlink.com 1.10,2013-01-10 15:15:00,
2013-01-10 10:30:00,44.2,26.0,30.48,WNW,285,3.0,15.0,49,0.00,,,0.00,weatherlink.com 1.10,2013-01-10 15:30:00,
2013-01-10 10:46:00,44.6,26.0,30.48,West,259,4.0,11.0,48,0.00,,,0.00,weatherlink.com 1.10,2013-01-10 15:46:00,
2013-01-10 11:00:00,44.4,25.0,30.47,West,276,8.0,14.0,46,0.00,,,0.00,weatherlink.com 1.10,2013-01-10 16:00:00,
2013-01-10 11:15:00,45.0,25.0,30.46,WNW,291,3.0,11.0,45,0.00,,,0.00,weatherlink.com 1.10,2013-01-10 16:15:00,
2013-01-10 11:31:00,45.2,25.0,30.45,WNW,283,8.0,14.0,45,0.00,,,0.00,weatherlink.com 1.10,2013-01-10 16:31:00,
2013-01-10 11:46:00,45.7,25.0,30.44,West,278,5.0,13.0,44,0.00,,,0.00,weatherlink.com 1.10,2013-01-10 16:46:00,
2013-01-10 12:01:00,45.9,24.0,30.44,ESE,118,1.0,12.0,43,0.00,,,0.00,weatherlink.com 1.10,2013-01-10 17:01:00,
2013-01-10 12:16:00,46.1,24.0,30.45,West,272,5.0,9.0,42,0.00,,,0.00,weatherlink.com 1.10,2013-01-10 17:16:00,
2013-01-10 12:31:00,46.1,24.0,30.43,NW,322,5.0,13.0,42,0.00,,,0.00,weatherlink.com 1.10,2013-01-10 17:31:00,
2013-01-10 12:46:00,46.2,24.0,30.44,NW,311,6.0,12.0,42,0.00,,,0.00,weatherlink.com 1.10,2013-01-10 17:46:00,
2013-01-10 13:01:00,46.8,25.0,30.43,West,278,1.0,10.0,42,0.00,,,0.00,weatherlink.com 1.10,2013-01-10 18:01:00,
2013-01-10 13:16:00,47.8,25.0,30.44,West,281,6.0,7.0,41,0.00,,,0.00,weatherlink.com 1.10,2013-01-10 18:16:00,
2013-01-10 13:31:00,48.3,25.0,30.44,WSW,238,0.0,10.0,40,0.00,,,0.00,weatherlink.com 1.10,2013-01-10 18:31:00,
2013-01-10 13:46:00,48.1,25.0,30.45,WNW,303,7.0,11.0,40,0.00,,,0.00,weatherlink.com 1.10,2013-01-10 18:46:00,
2013-01-10 14:01:00,48.2,24.0,30.45,West,262,2.0,10.0,39,0.00,,,0.00,weatherlink.com 1.10,2013-01-10 19:01:00,
2013-01-10 14:16:00,48.2,24.0,30.45,West,278,4.0,12.0,39,0.00,,,0.00,weatherlink.com 1.10,2013-01-10 19:16:00,
2013-01-10 14:31:00,48.7,25.0,30.45,NW,322,4.0,9.0,39,0.00,,,0.00,weatherlink.com 1.10,2013-01-10 19:31:00,
2013-01-10 14:46:00,48.6,24.0,30.45,WNW,287,6.0,12.0,38,0.00,,,0.00,weatherlink.com 1.10,2013-01-10 19:46:00,
2013-01-10 15:16:00,48.3,24.0,30.46,WNW,295,3.0,9.0,38,0.00,,,0.00,weatherlink.com 1.10,2013-01-10 20:16:00,
2013-01-10 15:31:00,48.3,24.0,30.47,WSW,240,2.0,10.0,38,0.00,,,0.00,weatherlink.com 1.10,2013-01-10 20:31:00,
2013-01-10 15:46:00,48.3,24.0,30.47,West,280,6.0,8.0,39,0.00,,,0.00,weatherlink.com 1.10,2013-01-10 20:46:00,
2013-01-10 16:01:00,48.1,25.0,30.47,SW,236,2.0,5.0,40,0.00,,,0.00,weatherlink.com 1.10,2013-01-10 21:01:00,
2013-01-10 16:16:00,48.0,25.0,30.48,WSW,249,2.0,8.0,40,0.00,,,0.00,weatherlink.com 1.10,2013-01-10 21:16:00,
2013-01-10 16:31:00,47.7,24.0,30.48,West,278,3.0,8.0,40,0.00,,,0.00,weatherlink.com 1.10,2013-01-10 21:31:00,
2013-01-10 16:46:00,47.5,25.0,30.48,West,262,3.0,7.0,42,0.00,,,0.00,weatherlink.com 1.10,2013-01-10 21:46:00,
2013-01-10 17:01:00,47.2,25.0,30.49,WNW,288,1.0,8.0,42,0.00,,,0.00,weatherlink.com 1.10,2013-01-10 22:01:00,
2013-01-10 17:16:00,47.1,25.0,30.49,West,272,3.0,7.0,42,0.00,,,0.00,weatherlink.com 1.10,2013-01-10 22:16:00,
2013-01-10 17:31:00,46.9,25.0,30.49,West,277,4.0,8.0,42,0.00,,,0.00,weatherlink.com 1.10,2013-01-10 22:31:00,
2013-01-10 17:46:00,46.8,25.0,30.48,West,269,4.0,10.0,42,0.00,,,0.00,weatherlink.com 1.10,2013-01-10 22:46:00,
2013-01-10 18:01:00,46.6,25.0,30.49,WSW,239,3.0,10.0,43,0.00,,,0.00,weatherlink.com 1.10,2013-01-10 23:01:00,
2013-01-10 18:16:00,46.4,25.0,30.50,WSW,243,5.0,6.0,43,0.00,,,0.00,weatherlink.com 1.10,2013-01-10 23:16:00,
2013-01-10 18:31:00,46.5,25.0,30.50,West,261,2.0,7.0,44,0.00,,,0.00,weatherlink.com 1.10,2013-01-10 23:31:00,
2013-01-10 18:46:00,46.3,25.0,30.50,East,90,0.0,5.0,44,0.00,,,0.00,weatherlink.com 1.10,2013-01-10 23:46:00,
2013-01-10 19:01:00,46.1,26.0,30.51,West,280,2.0,5.0,45,0.00,,,0.00,weatherlink.com 1.10,2013-01-11 00:01:00,
2013-01-10 19:16:00,45.9,25.0,30.51,WNW,288,3.0,8.0,45,0.00,,,0.00,weatherlink.com 1.10,2013-01-11 00:16:00,
2013-01-10 19:31:00,46.0,26.0,30.51,West,270,2.0,7.0,45,0.00,,,0.00,weatherlink.com 1.10,2013-01-11 00:31:00,
2013-01-10 19:46:00,45.8,26.0,30.51,WSW,255,1.0,4.0,46,0.00,,,0.00,weatherlink.com 1.10,2013-01-11 00:46:00,
2013-01-10 20:01:00,45.5,26.0,30.51,West,266,1.0,3.0,46,0.00,,,0.00,weatherlink.com 1.10,2013-01-11 01:01:00,
2013-01-10 20:16:00,45.3,26.0,30.51,ENE,68,0.0,5.0,47,0.00,,,0.00,weatherlink.com 1.10,2013-01-11 01:16:00,
2013-01-10 20:31:00,45.3,25.0,30.51,ENE,59,2.0,6.0,46,0.00,,,0.00,weatherlink.com 1.10,2013-01-11 01:31:00,
2013-01-10 20:46:00,45.1,26.0,30.51,SW,236,0.0,4.0,47,0.00,,,0.00,weatherlink.com 1.10,2013-01-11 01:46:00,
2013-01-10 21:01:00,44.8,26.0,30.52,WSW,245,0.0,3.0,48,0.00,,,0.00,weatherlink.com 1.10,2013-01-11 02:01:00,
2013-01-10 21:16:00,44.6,26.0,30.52,ENE,69,2.0,4.0,48,0.00,,,0.00,weatherlink.com 1.10,2013-01-11 02:16:00,
2013-01-10 21:31:00,44.3,26.0,30.52,ENE,60,2.0,6.0,48,0.00,,,0.00,weatherlink.com 1.10,2013-01-11 02:31:00,
2013-01-10 21:46:00,44.1,26.0,30.51,NNE,25,3.0,6.0,49,0.00,,,0.00,weatherlink.com 1.10,2013-01-11 02:46:00,
2013-01-10 22:01:00,43.7,25.0,30.52,NNE,32,5.0,8.0,48,0.00,,,0.00,weatherlink.com 1.10,2013-01-11 03:01:00,
2013-01-10 22:16:00,43.4,25.0,30.52,NNE,27,5.0,6.0,49,0.00,,,0.00,weatherlink.com 1.10,2013-01-11 03:16:00,
2013-01-10 22:31:00,43.1,25.0,30.52,ENE,63,2.0,5.0,49,0.00,,,0.00,weatherlink.com 1.10,2013-01-11 03:31:00,
2013-01-10 22:46:00,42.9,25.0,30.53,NE,45,4.0,7.0,49,0.00,,,0.00,weatherlink.com 1.10,2013-01-11 03:46:00,
2013-01-10 23:01:00,42.5,24.0,30.52,ENE,74,1.0,6.0,49,0.00,,,0.00,weatherlink.com 1.10,2013-01-11 04:01:00,
2013-01-10 23:16:00,42.2,25.0,30.52,ENE,73,1.0,9.0,50,0.00,,,0.00,weatherlink.com 1.10,2013-01-11 04:16:00,
2013-01-10 23:31:00,41.8,25.0,30.53,ENE,65,1.0,6.0,51,0.00,,,0.00,weatherlink.com 1.10,2013-01-11 04:31:00,
2013-01-10 23:46:00,41.5,25.0,30.53,NE,56,3.0,7.0,52,0.00,,,0.00,weatherlink.com 1.10,2013-01-11 04:46:00,